Regional Weather Roundup
Issued by NWS Cleveland, OH

Home | Current Version | Previous Version | Graphics & Text | Print | Product List | Glossary On
Versions: 1 2 3 4 5 6 7 8 9 10 11 12 13 14 15 16 17 18 19 20 21 22 23 24 25 26 27 28 29 30 31 32 33 34 35 36 37 38 39 40 41 42 43 44 45 46 47 48 49 50
000
ASUS41 KCLE 281910
RWRCLE
OHIO REGIONAL WEATHER ROUNDUP
NATIONAL WEATHER SERVICE CLEVELAND, OH
200 PM EST SUN DEC 28 2014

NOTE: "FAIR" INDICATES FEW OR NO CLOUDS BELOW 12,000 FEET WITH NO
SIGNIFICANT WEATHER AND/OR OBSTRUCTIONS TO VISIBILITY.

OHZ001>008-015>018-024>027-034-035-043-044-282000-
   NORTHWEST OHIO

CITY           SKY/WX    TMP DP  RH WIND       PRES   REMARKS
DEFIANCE       CLOUDY    36  26  67 W10       30.12S
FINDLAY        CLOUDY    37  29  72 NW9       30.09R
TOLEDO EXPRESS CLOUDY    36  26  67 W10       30.09S
TOLEDO EXEC    CLOUDY    39  28  64 W10       30.09S
LIMA           CLOUDY    36  29  75 W9        30.10R
$$

OHZ009>014-019>023-028>033-038-089-282000-
   NORTHEAST OHIO

CITY           SKY/WX    TMP DP  RH WIND       PRES   REMARKS
CLE-HOPKINS    CLOUDY    37  31  78 NW7       30.09S
CLE-LAKEFRONT  CLOUDY    38  34  85 W12       30.06F
CUY CO. ARPT   CLOUDY    39  36  87 W15       30.05F
LORAIN-ELYRIA  CLOUDY    36  31  82 NW9       30.07F
ASHTABULA      CLOUDY    36  28  73 NW6       30.05F
AKRON-CANTON   CLOUDY    38  30  73 W7        30.05S
WOOSTER        CLOUDY    37  30  75 NW7       30.06S
MANSFIELD      CLOUDY    35  30  82 VRB5      30.06S
YOUNGSTOWN     CLOUDY    36  32  85 W9        30.02S
$$

OHZ042-051>053-060>062-070>072-077>081-282000-
  SOUTHWEST OHIO

CITY           SKY/WX    TMP DP  RH WIND       PRES   REMARKS
CINC-COVINGTON CLOUDY    36  27  69 N6        30.12F
CINC-LUNKEN    CLOUDY    37  29  72 N7        30.15F
HAMILTON       CLOUDY    37  29  72 N5        30.13F
DAYTON         CLOUDY    37  30  75 NW7       30.11S
WRIGHT-PAT AFB CLOUDY    37  30  76 W6        30.11F
DAYTON GENERAL CLOUDY    36  29  75 NW6       30.11F
WILMINGTON     CLOUDY    35  28  75 NW8       30.10S WCI  29
$$

OHZ036-037-039>041-045>050-054>059-063>069-073>076-082>088-282000-
  CENTRAL AND SOUTHEAST OHIO

CITY           SKY/WX    TMP DP  RH WIND       PRES   REMARKS
COLUMBUS       CLOUDY    37  29  72 W6        30.09S
OSU AIRPORT    CLOUDY    37  29  72 NW9       30.10R
BOLTON FIELD   CLOUDY    37  30  75 NW12      30.10S
RICKENBACK AFB CLOUDY    37  31  78 NW6       30.08F
NEWARK         CLOUDY    39  30  70 NW8       30.08S
MARION         CLOUDY    37  30  75 NW9       30.09R
LANCASTER      CLOUDY    38  31  76 NW8       30.10R
ZANESVILLE     CLOUDY    37  30  75 NW6       30.07R
NEW PHILLY     CLOUDY    39  31  72 W6        30.07S
$$



USA.gov is the U.S. government's official web portal to all federal, state and local government web resources and services.